SL-8 DEB, 56998

Orbit data source: Space-Track

SL-8 DEB, 56998 is space debris in LEO originally from a launch on Wed, 13 Oct 1971 UTC launched from the Plesetsk Missile And Space Complex (PKMTR). Debris objects in space refer to the collection of defunct objects orbiting the Earth. Examples of debris include non-operational satellites, rocket bodies, and fragments generated from explosions, collisions, or faulty payload assembly.

Loading next visibility...
Identifier
56998, 1971-086L
Orbit
LEO
Country
Flag of CISCIS
Related business
Manufacturer
RVSN
Mission
Spacecraft
Bus & Motor
Unknown
Mass
Unknown
Launch date (UTC)
1971-10-13 (55 years ago)
Launch vehicle
Unknown
Launch site
Plesetsk Missile And Space Complex (PKMTR)
Object type
Payload
Rocket body
Debris
Shape & HBR
Unknown shape, 1.1 m
Radar Cross Section
Medium (>0.1 m² and <1 m²)

Expand to show TLE details & history
Last TLE update: 1 month ago

TLE from 1 month ago
0 SL-8 DEB
1 56998U 71086L   26139.39047434  .00000022  00000-0  32192-3 0  9998
2 56998  74.0261  38.2535 0074755 348.3052  11.6247 12.27774336554588
Epoch: 2026-05-19T09:22Z
TLE epoch observation values (Epoch: 2026-05-19T09:22:16.982Z)
Latitude
-0.00008°
Longitude
20.61765°
Altitude
1,503.105 km
Speed
7.139 km/s
True Right ascension
02h 33m 00s
True Declination
0° 00' 00"
Sunlit
Object was in daylight at epoch
Visualization orbit readout
Latitude
Unknown
Longitude
Unknown
Altitude
Unknown
Speed
Unknown
Apparent Right ascension
Unknown
Apparent Declination
Unknown
Sunlit
N/A
Visualization observer readout
Local Sidereal Time
21:33:16
Azimuth
Unknown
Elevation
Unknown
Doppler factor
Unknown
Orbital elements
Apogee altitude
1,616.037 km
Perigee altitude
1,497.403 km
Semi-major axis
7,934.857 km
Eccentricity
0.00748
Inclination
74.0261°
RAAN
38.2535°
Arg. of periapsis
348.3052°
True anomaly
11.7989°
Mean anomaly
11.6247°
Eccentric anomaly
11.71164°
Mean motion
3.07068 °/min
Orbital period
117.24 mins
BSTAR
0.00032192
Loading maneuver chart data...
Computing Atmospheric mass density...
Loading historical data...
Loading historical data...
Loading historical data...
Loading historical data...
Loading historical data...
Loading historical data...
Loading historical data...

Documentation

Showing up to 5 results
|